| time (UTC) | temp F | wind direction | speed MPH | gust MPH | rain 1hr in | rain 24hr in | rain mn in | humidity % | barometer mb |
| 20260901222644 | 82 | 148 | 0.0 | 5.0 | 0.00 | 0.00 | 0.00 | 74 | 1017.5 |
| 20260901222144 | 82 | 152 | 0.0 | 3.0 | 0.00 | 0.00 | 0.00 | 74 | 1017.5 |
| 20260901221641 | 82 | 152 | 0.0 | 3.0 | 0.00 | 0.00 | 0.00 | 74 | 1017.5 |
| 20260901221141 | 82 | 152 | 1.0 | 3.0 | 0.00 | 0.00 | 0.00 | 73 | 1017.4 |
| 20260901220647 | 82 | 152 | 3.0 | 3.0 | 0.00 | 0.00 | 0.00 | 73 | 1017.5 |
| 20260901220144 | 82 | 126 | 0.0 | 4.0 | 0.00 | 0.00 | 0.00 | 73 | 1017.4 |
| 20260901215644 | 82 | 172 | 2.0 | 4.0 | 0.00 | 0.00 | 0.00 | 73 | 1017.4 |
| 20260901215144 | 82 | 193 | 1.0 | 4.0 | 0.00 | 0.00 | 0.00 | 73 | 1017.5 |
| 20260901214641 | 82 | 174 | 1.0 | 4.0 | 0.00 | 0.00 | 0.00 | 73 | 1017.5 |
| 20260901214141 | 82 | 159 | 3.0 | 4.0 | 0.00 | 0.00 | 0.00 | 72 | 1017.4 |
| 20260901213650 | 82 | 162 | 3.0 | 5.0 | 0.00 | 0.00 | 0.00 | 72 | 1017.4 |
| 20260901213144 | 82 | 182 | 4.0 | 5.0 | 0.00 | 0.00 | 0.00 | 72 | 1017.5 |
| 20260901212644 | 82 | 185 | 0.0 | 1.0 | 0.00 | 0.00 | 0.00 | 72 | 1017.4 |
| 20260901212141 | 82 | 185 | 1.0 | 3.0 | 0.00 | 0.00 | 0.00 | 72 | 1017.5 |
| 20260901211644 | 82 | 173 | 3.0 | 4.0 | 0.00 | 0.00 | 0.00 | 72 | 1017.5 |
| 20260901211144 | 83 | 234 | 2.0 | 6.0 | 0.00 | 0.00 | 0.00 | 72 | 1017.5 |
| 20260901210641 | 83 | 168 | 3.0 | 6.0 | 0.00 | 0.00 | 0.00 | 73 | 1017.4 |
| 20260901210150 | 83 | 207 | 5.0 | 6.0 | 0.00 | 0.00 | 0.00 | 73 | 1017.4 |
| 20260901205651 | 83 | 222 | 3.0 | 4.0 | 0.00 | 0.00 | 0.00 | 72 | 1017.5 |
| 20260901205144 | 83 | 228 | 0.0 | 4.0 | 0.00 | 0.00 | 0.00 | 72 | 1017.4 |
| 20260901204641 | 83 | 198 | 3.0 | 4.0 | 0.00 | 0.00 | 0.00 | 72 | 1017.4 |
| 20260901204150 | 83 | 298 | 2.0 | 5.0 | 0.00 | 0.00 | 0.00 | 73 | 1017.5 |
| 20260901203647 | 83 | 193 | 2.0 | 3.0 | 0.00 | 0.00 | 0.00 | 72 | 1017.5 |
| 20260901203144 | 83 | 171 | 1.0 | 4.0 | 0.00 | 0.00 | 0.00 | 71 | 1017.5 |
| 20260901202647 | 83 | 162 | 0.0 | 1.0 | 0.00 | 0.00 | 0.00 | 71 | 1017.5 |
| 20260901202141 | 83 | 205 | 0.0 | 4.0 | 0.00 | 0.00 | 0.00 | 71 | 1017.5 |
| 20260901201641 | 83 | 203 | 1.0 | 3.0 | 0.00 | 0.00 | 0.00 | 71 | 1017.5 |
| 20260901201144 | 83 | 182 | 3.0 | 4.0 | 0.00 | 0.00 | 0.00 | 72 | 1017.5 |
| 20260901200647 | 83 | 229 | 2.0 | 3.0 | 0.00 | 0.00 | 0.00 | 71 | 1017.5 |
| 20260901200141 | 83 | 229 | 2.0 | 3.0 | 0.00 | 0.00 | 0.00 | 70 | 1017.6 |
| 20260901195644 | 83 | 151 | 2.0 | 4.0 | 0.00 | 0.00 | 0.00 | 70 | 1017.6 |
| 20260901195141 | 83 | 145 | 0.0 | 4.0 | 0.00 | 0.00 | 0.00 | 70 | 1017.6 |
| 20260901194647 | 83 | 174 | 2.0 | 5.0 | 0.00 | 0.00 | 0.00 | 70 | 1017.6 |
| 20260901194145 | 83 | 156 | 4.0 | 5.0 | 0.00 | 0.00 | 0.00 | 69 | 1017.6 |
| 20260901193644 | 83 | 165 | 0.0 | 4.0 | 0.00 | 0.00 | 0.00 | 69 | 1017.6 |
| 20260901193141 | 83 | 141 | 1.0 | 4.0 | 0.00 | 0.00 | 0.00 | 69 | 1017.6 |
| 20260901192641 | 83 | 189 | 0.0 | 2.0 | 0.00 | 0.00 | 0.00 | 69 | 1017.5 |
| 20260901192144 | 83 | 128 | 2.0 | 3.0 | 0.00 | 0.00 | 0.00 | 69 | 1017.5 |
| 20260901191644 | 83 | 90 | 2.0 | 4.0 | 0.00 | 0.00 | 0.00 | 69 | 1017.4 |
| 20260901191150 | 83 | 159 | 1.0 | 3.0 | 0.00 | 0.00 | 0.00 | 69 | 1017.3 |
| 20260901190641 | 83 | 155 | 0.0 | 2.0 | 0.00 | 0.00 | 0.00 | 69 | 1017.3 |
| 20260901190141 | 83 | 121 | 1.0 | 3.0 | 0.00 | 0.00 | 0.00 | 69 | 1017.2 |
| 20260901185644 | 83 | 113 | 0.0 | 0.0 | 0.00 | 0.00 | 0.00 | 69 | 1017.2 |
| 20260901185147 | 83 | 191 | 0.0 | 3.0 | 0.00 | 0.00 | 0.00 | 69 | 1017.2 |
| 20260901184647 | 83 | 181 | 0.0 | 3.0 | 0.00 | 0.00 | 0.00 | 69 | 1017.1 |
| 20260901184141 | 83 | 119 | 2.0 | 3.0 | 0.00 | 0.00 | 0.00 | 69 | 1017.1 |
| 20260901183641 | 83 | 114 | 0.0 | 3.0 | 0.00 | 0.00 | 0.00 | 68 | 1017.1 |
| 20260901183141 | 84 | 148 | 0.0 | 0.0 | 0.00 | 0.00 | 0.00 | 68 | 1017.0 |
| 20260901182641 | 84 | 133 | 0.0 | 2.0 | 0.00 | 0.00 | 0.00 | 69 | 1017.0 |
| 20260901182141 | 84 | 278 | 0.0 | 3.0 | 0.00 | 0.00 | 0.00 | 69 | 1016.9 |
| 20260901181647 | 84 | 288 | 0.0 | 0.0 | 0.00 | 0.00 | 0.00 | 69 | 1016.8 |
| 20260901181144 | 84 | 288 | 0.0 | 2.0 | 0.00 | 0.00 | 0.00 | 69 | 1016.9 |
| 20260901180641 | 84 | 288 | 2.0 | 4.0 | 0.00 | 0.00 | 0.00 | 68 | 1016.8 |
| 20260901180144 | 84 | 291 | 4.0 | 4.0 | 0.00 | 0.00 | 0.00 | 68 | 1016.7 |
| 20260901175647 | 84 | 291 | 0.0 | 3.0 | 0.00 | 0.00 | 0.00 | 68 | 1016.6 |
| 20260901175144 | 84 | 336 | 0.0 | 4.0 | 0.00 | 0.00 | 0.00 | 68 | 1016.6 |
| 20260901174644 | 85 | 333 | 3.0 | 5.0 | 0.00 | 0.00 | 0.00 | 67 | 1016.6 |
| 20260901174141 | 85 | 321 | 2.0 | 5.0 | 0.00 | 0.00 | 0.00 | 67 | 1016.5 |
| 20260901173644 | 85 | 257 | 5.0 | 4.0 | 0.00 | 0.00 | 0.00 | 67 | 1016.5 |
| 20260901173141 | 85 | 288 | 2.0 | 4.0 | 0.00 | 0.00 | 0.00 | 67 | 1016.5 |
| 20260901172647 | 85 | 232 | 1.0 | 3.0 | 0.00 | 0.00 | 0.00 | 66 | 1016.5 |
| 20260901172144 | 85 | 316 | 3.0 | 5.0 | 0.00 | 0.00 | 0.00 | 65 | 1016.5 |
| 20260901171644 | 86 | 268 | 5.0 | 6.0 | 0.00 | 0.00 | 0.00 | 64 | 1016.5 |
| 20260901171144 | 86 | 309 | 1.0 | 5.0 | 0.00 | 0.00 | 0.00 | 64 | 1016.5 |
| 20260901170647 | 86 | 340 | 4.0 | 6.0 | 0.00 | 0.00 | 0.00 | 63 | 1016.5 |
| 20260901170144 | 86 | 230 | 0.0 | 4.0 | 0.00 | 0.00 | 0.00 | 63 | 1016.4 |
| 20260901165641 | 87 | 287 | 1.0 | 5.0 | 0.00 | 0.00 | 0.00 | 63 | 1016.5 |
| 20260901165141 | 86 | 273 | 4.0 | 4.0 | 0.00 | 0.00 | 0.00 | 63 | 1016.5 |
| 20260901164641 | 87 | 265 | 2.0 | 5.0 | 0.00 | 0.00 | 0.00 | 63 | 1016.4 |
| 20260901164142 | 87 | 254 | 1.0 | 5.0 | 0.00 | 0.00 | 0.00 | 63 | 1016.4 |
| 20260901163644 | 86 | 286 | 1.0 | 7.0 | 0.00 | 0.00 | 0.00 | 63 | 1016.4 |
| 20260901163147 | 86 | 271 | 5.0 | 5.0 | 0.00 | 0.00 | 0.00 | 63 | 1016.4 |
| 20260901162644 | 87 | 34 | 2.0 | 4.0 | 0.00 | 0.00 | 0.00 | 61 | 1016.5 |
| 20260901162144 | 87 | 347 | 2.0 | 5.0 | 0.00 | 0.00 | 0.00 | 61 | 1016.5 |
| 20260901161650 | 87 | 315 | 2.0 | 5.0 | 0.00 | 0.00 | 0.00 | 61 | 1016.5 |
| 20260901161141 | 88 | 299 | 4.0 | 8.0 | 0.00 | 0.00 | 0.00 | 60 | 1016.5 |
| 20260901160645 | 88 | 304 | 4.0 | 6.0 | 0.00 | 0.00 | 0.00 | 60 | 1016.5 |
| 20260901160141 | 88 | 195 | 3.0 | 6.0 | 0.00 | 0.00 | 0.00 | 59 | 1016.5 |
| 20260901155645 | 88 | 232 | 2.0 | 7.0 | 0.00 | 0.00 | 0.00 | 59 | 1016.4 |
| 20260901155144 | 88 | 277 | 3.0 | 7.0 | 0.00 | 0.00 | 0.00 | 59 | 1016.4 |
| 20260901154644 | 88 | 312 | 2.0 | 7.0 | 0.00 | 0.00 | 0.00 | 58 | 1016.4 |
| 20260901154147 | 88 | 294 | 3.0 | 6.0 | 0.00 | 0.00 | 0.00 | 58 | 1016.4 |
| 20260901153641 | 88 | 223 | 3.0 | 8.0 | 0.00 | 0.00 | 0.00 | 58 | 1016.4 |
| 20260901153141 | 88 | 269 | 3.0 | 6.0 | 0.00 | 0.00 | 0.00 | 58 | 1016.4 |
| 20260901152647 | 88 | 244 | 1.0 | 6.0 | 0.00 | 0.00 | 0.00 | 57 | 1016.4 |
| 20260901152144 | 89 | 277 | 4.0 | 7.0 | 0.00 | 0.00 | 0.00 | 57 | 1016.4 |
| 20260901151650 | 89 | 250 | 4.0 | 7.0 | 0.00 | 0.00 | 0.00 | 58 | 1016.4 |
| 20260901151141 | 88 | 303 | 1.0 | 7.0 | 0.00 | 0.00 | 0.00 | 59 | 1016.5 |
| 20260901150644 | 88 | 294 | 3.0 | 6.0 | 0.00 | 0.00 | 0.00 | 59 | 1016.4 |
| 20260901150141 | 88 | 283 | 1.0 | 6.0 | 0.00 | 0.00 | 0.00 | 58 | 1016.5 |
| 20260901145647 | 89 | 208 | 1.0 | 5.0 | 0.00 | 0.00 | 0.00 | 58 | 1016.4 |
| 20260901145141 | 89 | 288 | 4.0 | 8.0 | 0.00 | 0.00 | 0.00 | 58 | 1016.5 |
| 20260901144647 | 89 | 284 | 7.0 | 9.0 | 0.00 | 0.00 | 0.00 | 58 | 1016.5 |
| 20260901144141 | 88 | 298 | 3.0 | 6.0 | 0.00 | 0.00 | 0.00 | 59 | 1016.4 |
| 20260901143644 | 88 | 289 | 4.0 | 7.0 | 0.00 | 0.00 | 0.00 | 59 | 1016.4 |
| 20260901143141 | 88 | 267 | 7.0 | 8.0 | 0.00 | 0.00 | 0.00 | 59 | 1016.5 |
| 20260901142650 | 88 | 312 | 1.0 | 7.0 | 0.00 | 0.00 | 0.00 | 58 | 1016.5 |
| 20260901142141 | 88 | 330 | 6.0 | 9.0 | 0.00 | 0.00 | 0.00 | 58 | 1016.4 |
| 20260901141642 | 88 | 315 | 7.0 | 9.0 | 0.00 | 0.00 | 0.00 | 57 | 1016.4 |
| 20260901141144 | 89 | 300 | 3.0 | 8.0 | 0.00 | 0.00 | 0.00 | 57 | 1016.4 |
| 20260901140641 | 89 | 265 | 6.0 | 9.0 | 0.00 | 0.00 | 0.00 | 57 | 1016.4 |
| 20260901140148 | 88 | 307 | 6.0 | 9.0 | 0.00 | 0.00 | 0.00 | 58 | 1016.5 |
| 20260901135641 | 89 | 351 | 10.0 | 10.0 | 0.00 | 0.00 | 0.00 | 57 | 1016.5 |
| 20260901135144 | 89 | 17 | 2.0 | 8.0 | 0.00 | 0.00 | 0.00 | 57 | 1016.4 |
| 20260901134644 | 89 | 324 | 4.0 | 11.0 | 0.00 | 0.00 | 0.00 | 57 | 1016.4 |
| 20260901134147 | 89 | 328 | 4.0 | 10.0 | 0.00 | 0.00 | 0.00 | 56 | 1016.4 |
| 20260901133641 | 89 | 314 | 7.0 | 11.0 | 0.00 | 0.00 | 0.00 | 55 | 1016.3 |
| 20260901133144 | 89 | 297 | 7.0 | 10.0 | 0.00 | 0.00 | 0.00 | 53 | 1016.4 |
| 20260901132641 | 89 | 298 | 6.0 | 9.0 | 0.00 | 0.00 | 0.00 | 54 | 1016.4 |
| 20260901132144 | 89 | 296 | 8.0 | 9.0 | 0.00 | 0.00 | 0.00 | 55 | 1016.3 |
| 20260901131641 | 89 | 302 | 4.0 | 8.0 | 0.00 | 0.00 | 0.00 | 52 | 1016.3 |
| 20260901131147 | 89 | 240 | 3.0 | 10.0 | 0.00 | 0.00 | 0.00 | 51 | 1016.4 |
| 20260901130644 | 89 | 350 | 5.0 | 9.0 | 0.00 | 0.00 | 0.00 | 51 | 1016.4 |
| 20260901130144 | 89 | 330 | 4.0 | 8.0 | 0.00 | 0.00 | 0.00 | 52 | 1016.4 |
| 20260901125644 | 89 | 324 | 7.0 | 9.0 | 0.00 | 0.00 | 0.00 | 52 | 1016.4 |
| 20260901125141 | 89 | 339 | 5.0 | 10.0 | 0.00 | 0.00 | 0.00 | 51 | 1016.4 |
| 20260901124641 | 90 | 294 | 6.0 | 9.0 | 0.00 | 0.00 | 0.00 | 50 | 1016.5 |
| 20260901124147 | 90 | 296 | 8.0 | 10.0 | 0.00 | 0.00 | 0.00 | 50 | 1016.5 |
| 20260901123647 | 90 | 253 | 7.0 | 7.0 | 0.00 | 0.00 | 0.00 | 49 | 1016.5 |
| 20260901123144 | 90 | 320 | 3.0 | 8.0 | 0.00 | 0.00 | 0.00 | 49 | 1016.5 |
| 20260901122641 | 90 | 298 | 7.0 | 11.0 | 0.00 | 0.00 | 0.00 | 48 | 1016.6 |
| 20260901122141 | 90 | 325 | 3.0 | 8.0 | 0.00 | 0.00 | 0.00 | 49 | 1016.5 |
| 20260901121647 | 90 | 302 | 4.0 | 8.0 | 0.00 | 0.00 | 0.00 | 47 | 1016.6 |
| 20260901121144 | 90 | 5 | 4.0 | 9.0 | 0.00 | 0.00 | 0.00 | 45 | 1016.7 |
| 20260901120641 | 90 | 333 | 2.0 | 10.0 | 0.00 | 0.00 | 0.00 | 49 | 1016.7 |
| 20260901120144 | 90 | 304 | 8.0 | 10.0 | 0.00 | 0.00 | 0.00 | 48 | 1016.7 |
| 20260901115644 | 90 | 335 | 6.0 | 9.0 | 0.00 | 0.00 | 0.00 | 47 | 1016.6 |
| 20260901115142 | 90 | 304 | 6.0 | 9.0 | 0.00 | 0.00 | 0.00 | 47 | 1016.6 |
| 20260901114642 | 90 | 259 | 4.0 | 8.0 | 0.00 | 0.00 | 0.00 | 47 | 1016.6 |
| 20260901114144 | 90 | 333 | 2.0 | 10.0 | 0.00 | 0.00 | 0.00 | 48 | 1016.6 |
| 20260901113644 | 90 | 296 | 2.0 | 9.0 | 0.00 | 0.00 | 0.00 | 49 | 1016.6 |
| 20260901113144 | 90 | 287 | 4.0 | 9.0 | 0.00 | 0.00 | 0.00 | 49 | 1016.6 |
| 20260901112644 | 90 | 309 | 4.0 | 6.0 | 0.00 | 0.00 | 0.00 | 48 | 1016.6 |
| 20260901112144 | 89 | 295 | 2.0 | 8.0 | 0.00 | 0.00 | 0.00 | 48 | 1016.6 |
| 20260901111651 | 89 | 304 | 2.0 | 10.0 | 0.00 | 0.00 | 0.00 | 50 | 1016.6 |
| 20260901111141 | 89 | 336 | 2.0 | 8.0 | 0.00 | 0.00 | 0.00 | 51 | 1016.6 |
| 20260901110641 | 89 | 286 | 3.0 | 7.0 | 0.00 | 0.00 | 0.00 | 51 | 1016.6 |
| 20260901110147 | 88 | 307 | 6.0 | 11.0 | 0.00 | 0.00 | 0.00 | 52 | 1016.6 |
| 20260901105644 | 88 | 317 | 5.0 | 7.0 | 0.00 | 0.00 | 0.00 | 52 | 1016.7 |
| 20260901105142 | 88 | 301 | 8.0 | 10.0 | 0.00 | 0.00 | 0.00 | 53 | 1016.7 |
| 20260901104644 | 88 | 5 | 2.0 | 10.0 | 0.00 | 0.00 | 0.00 | 53 | 1016.7 |
| 20260901104144 | 88 | 338 | 3.0 | 9.0 | 0.00 | 0.00 | 0.00 | 54 | 1016.7 |
| 20260901103641 | 88 | 348 | 5.0 | 7.0 | 0.00 | 0.00 | 0.00 | 56 | 1016.7 |
| 20260901103141 | 88 | 258 | 3.0 | 9.0 | 0.00 | 0.00 | 0.00 | 56 | 1016.8 |
| 20260901102641 | 87 | 299 | 1.0 | 8.0 | 0.00 | 0.00 | 0.00 | 57 | 1016.7 |
| 20260901102141 | 87 | 285 | 3.0 | 9.0 | 0.00 | 0.00 | 0.00 | 57 | 1016.8 |
| 20260901101641 | 87 | 28 | 9.0 | 11.0 | 0.00 | 0.00 | 0.00 | 59 | 1016.9 |
| 20260901101141 | 87 | 304 | 9.0 | 10.0 | 0.00 | 0.00 | 0.00 | 59 | 1016.9 |
| 20260901100641 | 87 | 304 | 6.0 | 10.0 | 0.00 | 0.00 | 0.00 | 60 | 1016.9 |
| 20260901100147 | 87 | 279 | 8.0 | 9.0 | 0.00 | 0.00 | 0.00 | 60 | 1016.9 |
| 20260901095644 | 87 | 346 | 3.0 | 9.0 | 0.00 | 0.00 | 0.00 | 60 | 1016.8 |
| 20260901095147 | 87 | 288 | 6.0 | 10.0 | 0.00 | 0.00 | 0.00 | 59 | 1016.9 |
| 20260901094645 | 88 | 302 | 6.0 | 9.0 | 0.00 | 0.00 | 0.00 | 59 | 1016.8 |
| 20260901094141 | 87 | 294 | 5.0 | 7.0 | 0.00 | 0.00 | 0.00 | 60 | 1016.9 |
| 20260901093644 | 87 | 19 | 3.0 | 9.0 | 0.00 | 0.00 | 0.00 | 61 | 1016.9 |
| 20260901093141 | 87 | 261 | 6.0 | 6.0 | 0.00 | 0.00 | 0.00 | 62 | 1016.9 |
| 20260901092641 | 87 | 57 | 3.0 | 12.0 | 0.00 | 0.00 | 0.00 | 61 | 1016.9 |
| 20260901092144 | 87 | 327 | 2.0 | 8.0 | 0.00 | 0.00 | 0.00 | 62 | 1016.8 |
| 20260901091647 | 87 | 238 | 6.0 | 11.0 | 0.00 | 0.00 | 0.00 | 61 | 1016.9 |
| 20260901091144 | 87 | 336 | 4.0 | 12.0 | 0.00 | 0.00 | 0.00 | 61 | 1016.8 |
| 20260901090647 | 87 | 275 | 6.0 | 9.0 | 0.00 | 0.00 | 0.00 | 61 | 1016.8 |
| 20260901090141 | 87 | 313 | 5.0 | 9.0 | 0.00 | 0.00 | 0.00 | 61 | 1016.7 |
| 20260901085641 | 86 | 250 | 4.0 | 9.0 | 0.00 | 0.00 | 0.00 | 62 | 1016.9 |
| 20260901085147 | 86 | 265 | 5.0 | 8.0 | 0.00 | 0.00 | 0.00 | 63 | 1016.8 |
| 20260901084644 | 86 | 27 | 2.0 | 9.0 | 0.00 | 0.00 | 0.00 | 63 | 1016.9 |
| 20260901084144 | 86 | 267 | 4.0 | 8.0 | 0.00 | 0.00 | 0.00 | 63 | 1016.9 |
| 20260901083644 | 86 | 309 | 4.0 | 7.0 | 0.00 | 0.00 | 0.00 | 64 | 1016.9 |
| 20260901083141 | 85 | 229 | 2.0 | 8.0 | 0.00 | 0.00 | 0.00 | 65 | 1016.9 |
| 20260901082641 | 85 | 279 | 5.0 | 8.0 | 0.00 | 0.00 | 0.00 | 66 | 1016.8 |
| 20260901082141 | 85 | 296 | 7.0 | 7.0 | 0.00 | 0.00 | 0.00 | 66 | 1016.7 |
| 20260901081641 | 85 | 5 | 2.0 | 5.0 | 0.00 | 0.00 | 0.00 | 66 | 1016.7 |
| 20260901081141 | 85 | 303 | 3.0 | 7.0 | 0.00 | 0.00 | 0.00 | 66 | 1016.7 |
| 20260901080641 | 85 | 355 | 2.0 | 9.0 | 0.00 | 0.00 | 0.00 | 67 | 1016.7 |
| 20260901080141 | 84 | 340 | 5.0 | 7.0 | 0.00 | 0.00 | 0.00 | 68 | 1016.6 |
| 20260901075647 | 84 | 298 | 2.0 | 6.0 | 0.00 | 0.00 | 0.00 | 68 | 1016.6 |
| 20260901075141 | 84 | 284 | 5.0 | 5.0 | 0.00 | 0.00 | 0.00 | 68 | 1016.6 |
| 20260901074642 | 84 | 302 | 4.0 | 8.0 | 0.00 | 0.00 | 0.00 | 68 | 1016.6 |
| 20260901074141 | 84 | 262 | 2.0 | 8.0 | 0.00 | 0.00 | 0.00 | 68 | 1016.6 |
| 20260901073641 | 84 | 263 | 5.0 | 7.0 | 0.00 | 0.00 | 0.00 | 68 | 1016.6 |
| 20260901073142 | 84 | 259 | 3.0 | 10.0 | 0.00 | 0.00 | 0.00 | 68 | 1016.6 |
| 20260901072642 | 84 | 308 | 9.0 | 9.0 | 0.00 | 0.00 | 0.00 | 68 | 1016.5 |
| 20260901072145 | 84 | 298 | 4.0 | 8.0 | 0.00 | 0.00 | 0.00 | 68 | 1016.5 |
| 20260901071644 | 84 | 298 | 2.0 | 9.0 | 0.00 | 0.00 | 0.00 | 68 | 1016.5 |
| 20260901071145 | 84 | 308 | 6.0 | 8.0 | 0.00 | 0.00 | 0.00 | 70 | 1016.4 |
| 20260901070645 | 84 | 269 | 1.0 | 5.0 | 0.00 | 0.00 | 0.00 | 70 | 1016.4 |
| 20260901070141 | 84 | 297 | 5.0 | 5.0 | 0.00 | 0.00 | 0.00 | 70 | 1016.4 |
| 20260901065645 | 83 | 308 | 5.0 | 7.0 | 0.00 | 0.00 | 0.00 | 70 | 1016.4 |
| 20260901065148 | 83 | 291 | 4.0 | 4.0 | 0.00 | 0.00 | 0.00 | 69 | 1016.4 |
| 20260901064651 | 84 | 295 | 0.0 | 2.0 | 0.00 | 0.00 | 0.00 | 69 | 1016.4 |
| 20260901064148 | 84 | 295 | 0.0 | 3.0 | 0.00 | 0.00 | 0.00 | 69 | 1016.4 |
| 20260901063642 | 84 | 295 | 1.0 | 4.0 | 0.00 | 0.00 | 0.00 | 69 | 1016.4 |
| 20260901063145 | 84 | 313 | 0.0 | 3.0 | 0.00 | 0.00 | 0.00 | 69 | 1016.4 |
| 20260901062651 | 84 | 204 | 2.0 | 4.0 | 0.00 | 0.00 | 0.00 | 69 | 1016.4 |
| 20260901062142 | 84 | 285 | 3.0 | 5.0 | 0.00 | 0.00 | 0.00 | 69 | 1016.4 |
| 20260901061642 | 83 | 256 | 0.0 | 3.0 | 0.00 | 0.00 | 0.00 | 69 | 1016.3 |
| 20260901061146 | 83 | 207 | 1.0 | 3.0 | 0.00 | 0.00 | 0.00 | 69 | 1016.4 |
| 20260901060648 | 83 | 207 | 1.0 | 3.0 | 0.00 | 0.00 | 0.00 | 69 | 1016.5 |
| 20260901060142 | 83 | 207 | 0.0 | 3.0 | 0.00 | 0.00 | 0.00 | 68 | 1016.4 |
| 20260901055642 | 83 | 229 | 2.0 | 3.0 | 0.00 | 0.00 | 0.00 | 69 | 1016.5 |
| 20260901055142 | 82 | 121 | 0.0 | 2.0 | 0.00 | 0.00 | 0.00 | 71 | 1016.4 |
| 20260901054645 | 81 | 153 | 1.0 | 2.0 | 0.00 | 0.00 | 0.00 | 72 | 1016.5 |
| 20260901054142 | 81 | 153 | 1.0 | 3.0 | 0.00 | 0.00 | 0.00 | 73 | 1016.4 |
| 20260901053642 | 80 | 153 | 0.0 | 3.0 | 0.00 | 0.00 | 0.00 | 73 | 1016.4 |
| 20260901053142 | 80 | 140 | 2.0 | 4.0 | 0.00 | 0.00 | 0.00 | 74 | 1016.4 |
| 20260901052642 | 79 | 130 | 3.0 | 5.0 | 0.00 | 0.00 | 0.00 | 75 | 1016.4 |
| 20260901052145 | 79 | 159 | 4.0 | 4.0 | 0.00 | 0.00 | 0.00 | 75 | 1016.4 |
| 20260901051645 | 79 | 171 | 2.0 | 3.0 | 0.00 | 0.00 | 0.00 | 75 | 1016.3 |
| 20260901051145 | 79 | 141 | 1.0 | 4.0 | 0.00 | 0.00 | 0.00 | 76 | 1016.3 |
| 20260901050648 | 78 | 130 | 3.0 | 3.0 | 0.00 | 0.00 | 0.00 | 76 | 1016.2 |
| 20260901050145 | 78 | 157 | 0.0 | 3.0 | 0.00 | 0.00 | 0.00 | 76 | 1016.2 |
| 20260901045645 | 78 | 167 | 3.0 | 3.0 | 0.00 | 0.00 | 0.00 | 76 | 1016.1 |
| 20260901045142 | 78 | 158 | 1.0 | 4.0 | 0.00 | 0.00 | 0.00 | 76 | 1016.1 |
| 20260901044642 | 78 | 160 | 0.0 | 4.0 | 0.00 | 0.00 | 0.00 | 76 | 1016.0 |
| 20260901044148 | 78 | 150 | 1.0 | 5.0 | 0.00 | 0.00 | 0.00 | 76 | 1015.9 |
| 20260901043642 | 78 | 158 | 3.0 | 5.0 | 0.00 | 0.00 | 0.00 | 76 | 1015.9 |
| 20260901043145 | 78 | 132 | 3.0 | 4.0 | 0.00 | 0.00 | 0.00 | 76 | 1015.9 |
| 20260901042642 | 78 | 167 | 1.0 | 4.0 | 0.00 | 0.00 | 0.00 | 76 | 1015.9 |
| 20260901042145 | 78 | 149 | 2.0 | 4.0 | 0.00 | 0.00 | 0.00 | 76 | 1015.9 |
| 20260901041642 | 79 | 165 | 3.0 | 5.0 | 0.00 | 0.00 | 0.00 | 76 | 1015.9 |
| 20260901041142 | 79 | 138 | 0.0 | 5.0 | 0.00 | 0.00 | 0.00 | 76 | 1015.8 |
| 20260901040642 | 79 | 187 | 1.0 | 4.0 | 0.00 | 0.00 | 0.00 | 76 | 1015.8 |
| 20260901040142 | 79 | 181 | 1.0 | 3.0 | 0.00 | 0.00 | 0.00 | 75 | 1015.8 |
| 20260901035645 | 79 | 146 | 1.0 | 5.0 | 0.00 | 0.00 | 0.00 | 75 | 1015.8 |
| 20260901035145 | 79 | 169 | 3.0 | 5.0 | 0.00 | 0.00 | 0.00 | 75 | 1015.8 |
| 20260901034646 | 79 | 165 | 0.0 | 5.0 | 0.00 | 0.00 | 0.00 | 75 | 1015.9 |
| 20260901034145 | 79 | 180 | 0.0 | 3.0 | 0.00 | 0.00 | 0.00 | 75 | 1015.9 |
| 20260901033642 | 79 | 169 | 3.0 | 4.0 | 0.00 | 0.00 | 0.00 | 75 | 1015.9 |
| 20260901033142 | 79 | 176 | 0.0 | 4.0 | 0.00 | 0.00 | 0.00 | 75 | 1015.9 |
| 20260901032648 | 79 | 161 | 0.0 | 4.0 | 0.00 | 0.00 | 0.00 | 76 | 1016.0 |
| 20260901032142 | 79 | 139 | 1.0 | 4.0 | 0.00 | 0.00 | 0.00 | 76 | 1016.1 |
| 20260901031642 | 79 | 134 | 3.0 | 4.0 | 0.00 | 0.00 | 0.00 | 76 | 1016.1 |
| 20260901031142 | 79 | 157 | 0.0 | 4.0 | 0.00 | 0.00 | 0.00 | 76 | 1016.1 |
| 20260901030645 | 79 | 84 | 0.0 | 7.0 | 0.00 | 0.00 | 0.00 | 76 | 1016.1 |
| 20260901030148 | 79 | 145 | 0.0 | 5.0 | 0.00 | 0.00 | 0.00 | 76 | 1016.1 |
| 20260901025651 | 79 | 146 | 1.0 | 4.0 | 0.00 | 0.00 | 0.00 | 76 | 1016.2 |
| 20260901025145 | 79 | 171 | 3.0 | 6.0 | 0.00 | 0.00 | 0.00 | 76 | 1016.2 |
| 20260901024642 | 79 | 154 | 3.0 | 5.0 | 0.00 | 0.00 | 0.00 | 76 | 1016.2 |
| 20260901024142 | 80 | 147 | 1.0 | 5.0 | 0.00 | 0.00 | 0.00 | 76 | 1016.1 |
| 20260901023642 | 80 | 181 | 3.0 | 5.0 | 0.00 | 0.00 | 0.00 | 76 | 1016.2 |
| 20260901023142 | 80 | 139 | 1.0 | 4.0 | 0.00 | 0.00 | 0.00 | 75 | 1016.1 |
| 20260901022642 | 80 | 159 | 4.0 | 5.0 | 0.00 | 0.00 | 0.00 | 75 | 1016.2 |
| 20260901022142 | 80 | 142 | 3.0 | 4.0 | 0.00 | 0.00 | 0.00 | 75 | 1016.1 |
| 20260901021642 | 80 | 173 | 0.0 | 2.0 | 0.00 | 0.00 | 0.00 | 75 | 1016.1 |
| 20260901021145 | 80 | 182 | 1.0 | 3.0 | 0.00 | 0.00 | 0.00 | 75 | 1016.2 |
| 20260901020645 | 81 | 194 | 1.0 | 3.0 | 0.00 | 0.00 | 0.00 | 75 | 1016.1 |
| 20260901020147 | 81 | 193 | 1.0 | 3.0 | 0.00 | 0.00 | 0.00 | 75 | 1016.1 |
| 20260901015641 | 81 | 221 | 0.0 | 3.0 | 0.00 | 0.00 | 0.00 | 75 | 1016.1 |
| 20260901015141 | 81 | 202 | 0.0 | 4.0 | 0.00 | 0.00 | 0.00 | 75 | 1016.2 |
| 20260901014641 | 81 | 189 | 2.0 | 4.0 | 0.00 | 0.00 | 0.00 | 75 | 1016.2 |
| 20260901014141 | 81 | 199 | 1.0 | 3.0 | 0.00 | 0.00 | 0.00 | 76 | 1016.1 |
| 20260901013642 | 81 | 192 | 3.0 | 3.0 | 0.00 | 0.00 | 0.00 | 76 | 1016.2 |
| 20260901013141 | 81 | 189 | 0.0 | 3.0 | 0.00 | 0.00 | 0.00 | 76 | 1016.2 |
| 20260901012641 | 81 | 189 | 2.0 | 3.0 | 0.00 | 0.00 | 0.00 | 77 | 1016.3 |
| 20260901012145 | 80 | 171 | 0.0 | 1.0 | 0.00 | 0.00 | 0.00 | 77 | 1016.3 |
| 20260901011641 | 80 | 171 | 0.0 | 2.0 | 0.00 | 0.00 | 0.00 | 77 | 1016.4 |
| 20260901011141 | 80 | 131 | 0.0 | 1.0 | 0.00 | 0.00 | 0.00 | 78 | 1016.4 |
| 20260901010644 | 80 | 184 | 0.0 | 1.0 | 0.00 | 0.00 | 0.00 | 78 | 1016.3 |
| 20260901010141 | 80 | 184 | 0.0 | 3.0 | 0.00 | 0.00 | 0.00 | 78 | 1016.3 |
| 20260901005647 | 80 | 146 | 0.0 | 0.0 | 0.00 | 0.00 | 0.00 | 78 | 1016.2 |
| 20260901005147 | 80 | 136 | 0.0 | 0.0 | 0.00 | 0.00 | 0.00 | 78 | 1016.2 |
| 20260901004641 | 80 | 142 | 0.0 | 0.0 | 0.00 | 0.00 | 0.00 | 78 | 1016.2 |
| 20260901004147 | 80 | 142 | 0.0 | 0.0 | 0.00 | 0.00 | 0.00 | 78 | 1016.2 |
| 20260901003644 | 80 | 163 | 0.0 | 0.0 | 0.00 | 0.00 | 0.00 | 78 | 1016.1 |
| 20260901003142 | 80 | 171 | 0.0 | 3.0 | 0.00 | 0.00 | 0.00 | 78 | 1016.1 |
| 20260901002641 | 80 | 153 | 2.0 | 4.0 | 0.00 | 0.00 | 0.00 | 78 | 1016.1 |
| 20260901002147 | 80 | 168 | 2.0 | 5.0 | 0.00 | 0.00 | 0.00 | 78 | 1016.1 |
| 20260901001647 | 80 | 152 | 3.0 | 5.0 | 0.00 | 0.00 | 0.00 | 78 | 1016.1 |
| 20260901001141 | 80 | 171 | 2.0 | 6.0 | 0.00 | 0.00 | 0.00 | 78 | 1016.0 |
| 20260901000641 | 80 | 153 | 0.0 | 6.0 | 0.00 | 0.00 | 0.00 | 78 | 1015.9 |
| 20260901000141 | 80 | 140 | 6.0 | 6.0 | 0.00 | 0.00 | 0.00 | 78 | 1015.9 |
| 20260831235641 | 80 | 158 | 0.0 | 6.0 | 0.00 | 0.00 | 0.00 | 78 | 1015.9 |
| 20260831235144 | 80 | 121 | 0.0 | 5.0 | 0.00 | 0.00 | 0.00 | 78 | 1015.8 |
| 20260831234650 | 81 | 107 | 2.0 | 4.0 | 0.00 | 0.00 | 0.00 | 77 | 1015.8 |
| 20260831234141 | 81 | 115 | 0.0 | 4.0 | 0.00 | 0.00 | 0.00 | 77 | 1015.8 |
| 20260831233647 | 81 | 173 | 1.0 | 3.0 | 0.00 | 0.00 | 0.00 | 78 | 1015.8 |
| 20260831233141 | 81 | 164 | 0.0 | 5.0 | 0.00 | 0.00 | 0.00 | 78 | 1015.8 |
| 20260831232648 | 81 | 206 | 2.0 | 6.0 | 0.00 | 0.00 | 0.00 | 77 | 1015.7 |
| 20260831232141 | 81 | 173 | 2.0 | 5.0 | 0.00 | 0.00 | 0.00 | 77 | 1015.8 |
| 20260831231641 | 81 | 135 | 3.0 | 4.0 | 0.00 | 0.00 | 0.00 | 77 | 1015.8 |
| 20260831231141 | 81 | 127 | 2.0 | 4.0 | 0.00 | 0.00 | 0.00 | 76 | 1015.9 |
| 20260831230641 | 82 | 173 | 0.0 | 4.0 | 0.00 | 0.00 | 0.00 | 76 | 1015.8 |
| 20260831230141 | 82 | 176 | 1.0 | 4.0 | 0.00 | 0.00 | 0.00 | 75 | 1015.8 |
| 20260831225650 | 82 | 126 | 0.0 | 3.0 | 0.00 | 0.00 | 0.00 | 75 | 1015.8 |
| 20260831225141 | 82 | 147 | 0.0 | 3.0 | 0.00 | 0.00 | 0.00 | 75 | 1015.8 |
| 20260831224641 | 82 | 157 | 0.0 | 4.0 | 0.00 | 0.00 | 0.00 | 75 | 1015.9 |
| 20260831224144 | 82 | 140 | 0.0 | 4.0 | 0.00 | 0.00 | 0.00 | 75 | 1015.9 |
| 20260831223644 | 82 | 159 | 0.0 | 3.0 | 0.00 | 0.00 | 0.00 | 75 | 1015.9 |
| 20260831223141 | 82 | 151 | 1.0 | 3.0 | 0.00 | 0.00 | 0.00 | 75 | 1015.9 |